FW6209 Weather Reports


Display with metric or nautical units.
time (UTC)temp
F
wind
direction
speed
MPH
gust
MPH
rain 1hr
in
rain 24hr
in
rain mn
in
humidity
%
barometer
mb
20260905014506 75 240 0.0 0.0 0.00 0.00 0.00 51 1011.8
20260905014001 76 252 0.0 0.0 0.00 0.00 0.00 47 1011.7
20260905013455 76 210 0.0 1.0 0.00 0.00 0.00 43 1011.7
20260905013215 77 277 0.0 1.0 0.00 0.00 0.00 42 1011.7
20260905012443 77 225 0.0 1.0 0.00 0.00 0.00 42 1011.9
20260905012206 78 213 0.0 1.0 0.00 0.00 0.00 42 1012.0
20260905011431 78 251 0.0 3.0 0.00 0.00 0.00 42 1012.0
20260905010926 78 218 0.0 3.0 0.00 0.00 0.00 42 1011.8
20260905010419 78 238 0.0 3.0 0.00 0.00 0.00 42 1011.8
20260905005913 78 204 0.0 3.0 0.00 0.00 0.00 43 1011.9
20260905005407 78 243 0.0 4.0 0.00 0.00 0.00 43 1012.0
20260905004901 78 217 0.0 4.0 0.00 0.00 0.00 42 1011.9
20260905004848 78 164 0.0 4.0 0.00 0.00 0.00 41 1012.0
20260905003849 79 258 0.0 4.0 0.00 0.00 0.00 43 1011.9
20260905003343 79 188 0.0 4.0 0.00 0.00 0.00 39 1012.0
20260905003108 78 232 0.0 4.0 0.00 0.00 0.00 42 1012.0
20260905002332 78 159 0.0 4.0 0.00 0.00 0.00 40 1011.9
20260905001825 78 290 0.0 3.0 0.00 0.00 0.00 41 1012.0
20260905001319 79 238 0.0 5.0 0.00 0.00 0.00 37 1011.9
20260905000813 79 177 0.0 5.0 0.00 0.00 0.00 41 1012.0
20260905000307 79 238 1.0 8.0 0.00 0.00 0.00 38 1012.0
20260904235801 78 173 2.0 8.0 0.00 0.00 0.00 38 1012.0
20260904235255 79 209 2.0 8.0 0.00 0.00 0.00 39 1012.1
20260904234749 79 179 1.0 8.0 0.00 0.00 0.00 40 1012.1
20260904234243 79 242 1.0 8.0 0.00 0.00 0.00 40 1012.1
20260904233738 78 174 2.0 9.0 0.00 0.00 0.00 40 1012.1
20260904232726 78 198 3.0 9.0 0.00 0.00 0.00 38 1012.0
20260904232219 79 188 3.0 8.0 0.00 0.00 0.00 38 1012.1
20260904231931 79 144 3.0 10.0 0.00 0.00 0.00 41 1011.9
20260904231207 79 209 4.0 10.0 0.00 0.00 0.00 41 1011.9
20260904230919 79 188 3.0 11.0 0.00 0.00 0.00 41 1012.0
20260904230423 79 192 4.0 11.0 0.00 0.00 0.00 42 1012.0
20260904225649 79 221 4.0 11.0 0.00 0.00 0.00 43 1012.1
20260904225144 79 220 4.0 11.0 0.00 0.00 0.00 44 1012.2
20260904224637 79 240 3.0 9.0 0.00 0.00 0.00 45 1012.1
20260904224131 80 196 3.0 10.0 0.00 0.00 0.00 45 1012.0
20260904223625 80 215 4.0 11.0 0.00 0.00 0.00 45 1012.0
20260904223119 80 201 3.0 11.0 0.00 0.00 0.00 45 1012.1
20260904222613 80 191 3.0 11.0 0.00 0.00 0.00 44 1012.2
20260904222107 80 252 3.0 11.0 0.00 0.00 0.00 46 1012.3
20260904221601 80 217 3.0 11.0 0.00 0.00 0.00 46 1012.3
20260904221320 80 214 3.0 12.0 0.00 0.00 0.00 47 1012.2
20260904220805 80 238 3.0 12.0 0.00 0.00 0.00 47 1012.1
20260904220043 81 251 2.0 9.0 0.00 0.00 0.00 48 1012.3
20260904215803 81 218 1.0 9.0 0.00 0.00 0.00 48 1012.2
20260904215031 80 263 2.0 11.0 0.00 0.00 0.00 49 1012.1
20260904214525 80 165 4.0 12.0 0.00 0.00 0.00 49 1012.2
20260904214021 80 205 5.0 12.0 0.00 0.00 0.00 50 1012.2
20260904213513 80 155 6.0 11.0 0.00 0.00 0.00 50 1012.3
20260904213007 80 183 5.0 11.0 0.00 0.00 0.00 48 1012.4
20260904212501 81 205 3.0 11.0 0.00 0.00 0.00 48 1012.2
20260904211955 80 205 2.0 12.0 0.00 0.00 0.00 48 1012.4
20260904211928 80 190 5.0 12.0 0.00 0.00 0.00 50 1012.4
20260904210943 80 224 4.0 12.0 0.00 0.00 0.00 51 1012.3
20260904210659 80 188 4.0 11.0 0.00 0.00 0.00 49 1012.3
20260904210159 81 216 4.0 11.0 0.00 0.00 0.00 49 1012.3
20260904205426 80 219 3.0 10.0 0.00 0.00 0.00 50 1012.3
20260904204919 80 249 3.0 10.0 0.00 0.00 0.00 48 1012.4
20260904204413 80 208 4.0 10.0 0.00 0.00 0.00 48 1012.3
20260904204139 81 178 5.0 11.0 0.00 0.00 0.00 46 1012.5
20260904203401 81 236 4.0 11.0 0.00 0.00 0.00 46 1012.5
20260904203118 81 181 3.0 10.0 0.00 0.00 0.00 46 1012.4
20260904202349 81 219 4.0 10.0 0.00 0.00 0.00 45 1012.5
20260904201843 81 171 3.0 10.0 0.00 0.00 0.00 45 1012.5
20260904201337 82 201 2.0 8.0 0.00 0.00 0.00 44 1012.5
20260904200831 82 157 2.0 8.0 0.00 0.00 0.00 42 1012.5
20260904200326 82 153 0.0 8.0 0.00 0.00 0.00 42 1012.4
20260904195819 82 5 1.0 8.0 0.00 0.00 0.00 46 1012.4
20260904195313 81 186 0.0 7.0 0.00 0.00 0.00 42 1012.4
20260904194807 81 254 0.0 7.0 0.00 0.00 0.00 42 1012.5
20260904194301 81 248 0.0 1.0 0.00 0.00 0.00 40 1012.7
20260904193755 80 69 0.0 4.0 0.00 0.00 0.00 42 1012.6
20260904193249 80 27 0.0 4.0 0.00 0.00 0.00 39 1012.7
20260904192743 80 212 1.0 4.0 0.00 0.00 0.00 36 1012.8
20260904192502 80 281 1.0 7.0 0.00 0.00 0.00 38 1012.8
20260904191953 80 152 0.0 7.0 0.00 0.00 0.00 42 1012.9
20260904191226 79 139 2.0 8.0 0.00 0.00 0.00 44 1012.9
20260904190719 79 187 2.0 8.0 0.00 0.00 0.00 45 1013.1
20260904190443 79 242 0.0 6.0 0.00 0.00 0.00 47 1013.2
20260904185933 79 208 0.0 5.0 0.00 0.00 0.00 41 1013.3
20260904185426 78 9 1.0 5.0 0.00 0.00 0.00 42 1013.3
20260904184655 78 202 0.0 7.0 0.00 0.00 0.00 38 1013.3
20260904184151 78 178 0.0 7.0 0.00 0.00 0.00 42 1013.4
20260904183645 77 100 0.0 6.0 0.00 0.00 0.00 43 1013.3
20260904183405 77 144 0.0 2.0 0.00 0.00 0.00 46 1013.4
20260904182631 77 120 0.0 7.0 0.00 0.00 0.00 48 1013.3
20260904182125 76 0 0.0 7.0 0.00 0.00 0.00 49 1013.3
20260904181840 76 150 0.0 7.0 0.00 0.00 0.00 49 1013.6
20260904181113 75 196 0.0 7.0 0.00 0.00 0.00 52 1013.4
20260904180607 75 44 0.0 7.0 0.00 0.00 0.00 52 1013.4
20260904180101 75 120 1.0 7.0 0.00 0.00 0.00 51 1013.4
20260904175555 75 254 0.0 6.0 0.00 0.00 0.00 52 1013.6
20260904175050 75 117 0.0 2.0 0.00 0.00 0.00 55 1013.6
20260904174544 74 182 0.0 2.0 0.00 0.00 0.00 55 1013.7
20260904174037 74 171 0.0 6.0 0.00 0.00 0.00 56 1013.7
20260904173532 73 171 0.0 6.0 0.00 0.00 0.00 60 1013.7
20260904173025 73 237 0.0 6.0 0.00 0.00 0.00 61 1013.7
20260904172519 72 96 1.0 6.0 0.00 0.00 0.00 59 1013.7
20260904172013 72 223 1.0 5.0 0.00 0.00 0.00 61 1013.7
20260904171507 72 197 0.0 5.0 0.00 0.00 0.00 63 1013.8
20260904171446 72 150 0.0 5.0 0.00 0.00 0.00 64 1013.7
20260904170455 71 171 0.0 5.0 0.00 0.00 0.00 66 1013.7
20260904165952 71 317 0.0 5.0 0.00 0.00 0.00 67 1013.6
20260904165444 71 184 0.0 2.0 0.00 0.00 0.00 66 1013.4
20260904164937 71 198 0.0 2.0 0.00 0.00 0.00 66 1013.3
20260904164431 70 189 0.0 2.0 0.00 0.00 0.00 69 1013.1
20260904163925 70 225 0.0 2.0 0.00 0.00 0.00 71 1013.1
20260904163909 69 155 0.0 2.0 0.00 0.00 0.00 72 1013.1
20260904162913 69 251 0.0 2.0 0.00 0.00 0.00 73 1013.0
20260904162634 68 210 0.0 0.0 0.00 0.00 0.00 75 1013.0
20260904161901 67 144 0.0 0.0 0.00 0.00 0.00 76 1012.9
20260904161355 67 152 0.0 0.0 0.00 0.00 0.00 76 1012.8
20260904160849 66 220 0.0 0.0 0.00 0.00 0.00 77 1012.9
20260904160343 66 190 0.0 0.0 0.00 0.00 0.00 78 1012.9
20260904155838 65 111 0.0 0.0 0.00 0.00 0.00 81 1012.8
20260904155334 64 113 0.0 0.0 0.00 0.00 0.00 84 1012.7
20260904155053 63 244 0.0 0.0 0.00 0.00 0.00 84 1012.7
20260904154319 62 276 0.0 0.0 0.00 0.00 0.00 86 1012.8
20260904153813 62 273 0.0 0.0 0.00 0.00 0.00 87 1012.7
20260904153309 62 229 0.0 0.0 0.00 0.00 0.00 89 1012.8
20260904152802 61 170 0.0 0.0 0.00 0.00 0.00 90 1012.7
20260904152739 61 170 0.0 0.0 0.00 0.00 0.00 90 1012.7
20260904151750 60 170 0.0 0.0 0.00 0.00 0.00 91 1012.7
20260904151243 60 164 0.0 0.0 0.00 0.00 0.00 92 1012.8
20260904150737 60 101 0.0 0.0 0.00 0.00 0.00 93 1012.9
20260904150231 60 139 0.0 0.0 0.00 0.00 0.00 93 1012.9
20260904145948 60 140 0.0 0.0 0.00 0.00 0.00 93 1012.7
20260904145219 60 170 0.0 0.0 0.00 0.00 0.00 93 1012.8
20260904144713 59 184 0.0 0.0 0.00 0.00 0.00 94 1012.7
20260904144207 59 214 0.0 0.0 0.00 0.00 0.00 94 1012.7
20260904143701 59 214 0.0 0.0 0.00 0.00 0.00 94 1012.6
20260904143155 59 96 0.0 0.0 0.00 0.00 0.00 94 1012.6
20260904142650 59 96 0.0 0.0 0.00 0.00 0.00 94 1012.4
20260904142144 59 79 0.0 0.0 0.00 0.00 0.00 94 1012.4
20260904141637 59 79 0.0 0.0 0.00 0.00 0.00 94 1012.3
20260904141131 59 98 0.0 0.0 0.00 0.00 0.00 94 1012.2
20260904140625 59 176 0.0 0.0 0.00 0.00 0.00 94 1012.2
20260904140119 59 196 0.0 0.0 0.00 0.00 0.00 94 1012.2
20260904135614 59 185 0.0 0.0 0.00 0.00 0.00 94 1012.3
20260904135107 59 185 0.0 0.0 0.00 0.00 0.00 94 1012.3
20260904134601 59 185 0.0 0.0 0.00 0.00 0.00 94 1012.3
20260904134055 59 120 0.0 0.0 0.00 0.00 0.00 94 1012.2
20260904133549 59 174 0.0 0.0 0.00 0.00 0.00 94 1012.1
20260904133043 59 174 0.0 0.0 0.00 0.00 0.00 94 1012.0
20260904132537 59 174 0.0 0.0 0.00 0.00 0.00 94 1012.1
20260904132031 59 109 0.0 0.0 0.00 0.00 0.00 94 1012.2
20260904131525 59 110 0.0 0.0 0.00 0.00 0.00 94 1012.1
20260904131019 59 148 0.0 0.0 0.00 0.00 0.00 94 1012.1
20260904130514 59 115 0.0 0.0 0.00 0.00 0.00 95 1012.0
20260904130008 59 164 0.0 0.0 0.00 0.00 0.00 95 1011.9
20260904125501 59 164 0.0 0.0 0.00 0.00 0.00 94 1011.9
20260904124955 59 164 0.0 0.0 0.00 0.00 0.00 94 1011.9
20260904124449 59 114 0.0 0.0 0.00 0.00 0.00 95 1011.8
20260904123943 59 114 0.0 0.0 0.00 0.00 0.00 95 1011.8
20260904123437 59 114 0.0 0.0 0.00 0.00 0.00 95 1011.9
20260904122931 59 114 0.0 0.0 0.00 0.00 0.00 95 1011.8
20260904122913 59 114 0.0 0.0 0.00 0.00 0.00 95 1011.9
20260904121919 59 114 0.0 0.0 0.00 0.00 0.00 94 1011.8
20260904121413 59 114 0.0 0.0 0.00 0.00 0.00 95 1011.8
20260904120907 59 182 0.0 0.0 0.00 0.00 0.00 95 1011.8
20260904120401 59 182 0.0 0.0 0.00 0.00 0.00 95 1011.9
20260904115855 59 114 0.0 0.0 0.00 0.00 0.00 94 1012.0
20260904115614 59 113 0.0 0.0 0.00 0.00 0.00 94 1011.9
20260904114843 59 182 0.0 0.0 0.00 0.00 0.00 95 1012.0
20260904114337 59 109 0.0 0.0 0.00 0.00 0.00 95 1011.9
20260904113837 59 119 0.0 0.0 0.00 0.00 0.00 95 1012.1
20260904113600 59 165 0.0 0.0 0.00 0.00 0.00 95 1012.1
20260904112840 59 165 0.0 0.0 0.00 0.00 0.00 95 1012.1
20260904112338 59 106 0.0 0.0 0.00 0.00 0.00 95 1012.1
20260904111838 59 106 0.0 0.0 0.00 0.00 0.00 95 1012.2
20260904111333 59 210 0.0 0.0 0.00 0.00 0.00 95 1012.2
20260904110833 59 209 0.0 0.0 0.00 0.00 0.00 95 1012.1
20260904110554 59 174 0.0 0.0 0.00 0.00 0.00 95 1012.2
20260904105832 59 114 0.0 0.0 0.00 0.00 0.00 95 1012.1
20260904105331 59 168 0.0 0.0 0.00 0.00 0.00 95 1012.0
20260904104830 59 168 0.0 0.0 0.00 0.00 0.00 95 1012.0
20260904104331 59 196 0.0 0.0 0.00 0.00 0.00 95 1012.0
20260904103830 59 207 0.0 0.0 0.00 0.00 0.00 95 1012.0
20260904103815 59 186 0.0 0.0 0.00 0.00 0.00 95 1011.9
20260904103053 59 202 0.0 0.0 0.00 0.00 0.00 95 1011.8
20260904102331 59 202 0.0 0.0 0.00 0.00 0.00 95 1011.8
20260904101831 59 202 0.0 0.0 0.00 0.00 0.00 95 1011.6
20260904101328 59 202 0.0 0.0 0.00 0.00 0.00 95 1011.7
20260904101050 59 202 0.0 0.0 0.00 0.00 0.00 95 1011.7
20260904100328 59 186 0.0 0.0 0.00 0.00 0.00 94 1011.8
20260904100049 59 188 0.0 0.0 0.00 0.00 0.00 94 1011.9
20260904095328 59 186 0.0 0.0 0.00 0.00 0.00 94 1011.8
20260904094828 59 186 0.0 0.0 0.00 0.00 0.00 94 1011.7
20260904094328 59 186 0.0 0.0 0.00 0.00 0.00 94 1011.6
20260904093828 59 202 0.0 0.0 0.00 0.00 0.00 94 1011.6
20260904093325 59 221 0.0 0.0 0.00 0.00 0.00 94 1011.5
20260904093318 59 221 0.0 0.0 0.00 0.00 0.00 94 1011.6
20260904092327 59 185 0.0 0.0 0.00 0.00 0.00 94 1011.5
20260904091819 59 182 0.0 0.0 0.00 0.00 0.00 94 1011.7
20260904091321 59 196 0.0 0.0 0.00 0.00 0.00 94 1011.8
20260904090821 59 184 0.0 0.0 0.00 0.00 0.00 94 1011.7
20260904090321 59 166 0.0 0.0 0.00 0.00 0.00 93 1011.7
20260904090038 59 149 0.0 0.0 0.00 0.00 0.00 93 1011.8
20260904085318 59 149 0.0 0.0 0.00 0.00 0.00 93 1011.8
20260904084818 58 149 0.0 0.0 0.00 0.00 0.00 93 1011.9
20260904084546 58 149 0.0 0.0 0.00 0.00 0.00 93 1011.8
20260904084047 58 149 0.0 0.0 0.00 0.00 0.00 93 1011.9
20260904083315 59 149 0.0 0.0 0.00 0.00 0.00 92 1011.9
20260904083255 59 149 0.0 0.0 0.00 0.00 0.00 93 1011.8
20260904082315 59 149 0.0 0.0 0.00 0.00 0.00 93 1012.0
20260904081813 59 149 0.0 0.0 0.00 0.00 0.00 92 1012.0
20260904081532 59 149 0.0 0.0 0.00 0.00 0.00 92 1012.1
20260904081406 59 149 0.0 0.0 0.00 0.00 0.00 92 1012.1
20260904080309 59 149 0.0 0.0 0.00 0.00 0.00 92 1012.1
20260904075810 59 149 0.0 0.0 0.00 0.00 0.00 92 1012.1
20260904075311 59 149 0.0 0.0 0.00 0.00 0.00 92 1012.1
20260904074810 59 149 0.0 0.0 0.00 0.00 0.00 92 1012.1
20260904074312 59 149 0.0 0.0 0.00 0.00 0.00 92 1012.1
20260904074034 59 149 0.0 0.0 0.00 0.00 0.00 92 1012.3
20260904073312 59 149 0.0 0.0 0.00 0.00 0.00 92 1012.1
20260904072811 59 149 0.0 0.0 0.00 0.00 0.00 92 1012.0
20260904072311 59 149 0.0 0.0 0.00 0.00 0.00 92 1012.2
20260904071809 59 149 0.0 0.0 0.00 0.00 0.00 92 1012.3
20260904071309 59 149 0.0 0.0 0.00 0.00 0.00 92 1012.2
20260904071300 59 149 0.0 0.0 0.00 0.00 0.00 91 1012.2
20260904070312 60 149 0.0 0.0 0.00 0.00 0.00 92 1012.2
20260904065812 60 149 0.0 0.0 0.00 0.00 0.00 92 1012.3
20260904065307 60 149 0.0 0.0 0.00 0.00 0.00 92 1012.3
20260904064800 60 149 0.0 0.0 0.00 0.00 0.00 91 1012.3
20260904064255 60 149 0.0 0.0 0.00 0.00 0.00 91 1012.3
20260904063748 60 149 0.0 0.0 0.00 0.00 0.00 91 1012.2
20260904063243 60 144 0.0 0.0 0.00 0.00 0.00 91 1012.1
20260904062736 60 144 0.0 0.0 0.00 0.00 0.00 91 1012.1
20260904062230 60 144 0.0 0.0 0.00 0.00 0.00 91 1012.2
20260904061724 60 210 0.0 0.0 0.00 0.00 0.00 90 1012.1
20260904061218 60 210 0.0 0.0 0.00 0.00 0.00 90 1012.1
20260904060712 60 210 0.0 0.0 0.00 0.00 0.00 90 1012.1
20260904060206 60 210 0.0 0.0 0.00 0.00 0.00 90 1012.0
20260904055700 60 210 0.0 0.0 0.00 0.00 0.00 90 1012.1
20260904055154 60 210 0.0 0.0 0.00 0.00 0.00 90 1012.2
20260904054648 60 210 0.0 0.0 0.00 0.00 0.00 89 1012.2
20260904054142 60 210 0.0 0.0 0.00 0.00 0.00 90 1012.2
20260904053635 60 210 0.0 0.0 0.00 0.00 0.00 90 1012.2
20260904053130 60 210 0.0 0.0 0.00 0.00 0.00 89 1012.1
20260904053107 61 210 0.0 0.0 0.00 0.00 0.00 89 1012.2
20260904052118 61 210 0.0 0.0 0.00 0.00 0.00 89 1012.2
20260904051843 61 210 0.0 0.0 0.00 0.00 0.00 89 1012.2
20260904051106 61 210 0.0 0.0 0.00 0.00 0.00 89 1012.4
20260904050827 61 210 0.0 0.0 0.00 0.00 0.00 89 1012.3
20260904050314 61 210 0.0 0.0 0.00 0.00 0.00 88 1012.4
20260904045549 61 210 0.0 0.0 0.00 0.00 0.00 89 1012.4
20260904045042 61 210 0.0 0.0 0.00 0.00 0.00 88 1012.3
20260904044536 61 210 0.0 0.0 0.00 0.00 0.00 88 1012.2
20260904044031 61 210 0.0 0.0 0.00 0.00 0.00 88 1012.2
20260904043526 62 210 0.0 0.0 0.00 0.00 0.00 87 1012.3
20260904043018 62 210 0.0 0.0 0.00 0.00 0.00 86 1012.3
20260904042512 62 210 0.0 0.0 0.00 0.00 0.00 87 1012.3
20260904042007 62 210 0.0 0.0 0.00 0.00 0.00 87 1012.3
20260904041500 62 210 0.0 0.0 0.00 0.00 0.00 87 1012.3
20260904040955 62 194 0.0 0.0 0.00 0.00 0.00 87 1012.3
20260904040715 62 211 0.0 0.0 0.00 0.00 0.00 86 1012.1
20260904035942 62 182 0.0 0.0 0.00 0.00 0.00 86 1011.8
20260904035436 62 202 0.0 0.0 0.00 0.00 0.00 86 1011.9
20260904034930 62 206 0.0 0.0 0.00 0.00 0.00 86 1011.9
20260904034424 62 193 0.0 0.0 0.00 0.00 0.00 86 1011.9
20260904034138 62 198 0.0 0.0 0.00 0.00 0.00 86 1011.9
20260904033638 62 188 0.0 0.0 0.00 0.00 0.00 85 1011.9
20260904032919 63 219 0.0 0.0 0.00 0.00 0.00 85 1011.8
20260904032645 63 213 0.0 0.0 0.00 0.00 0.00 84 1011.8
20260904031918 63 210 0.0 0.0 0.00 0.00 0.00 84 1011.7
20260904031418 63 201 0.0 5.0 0.00 0.00 0.00 84 1011.6
20260904030920 63 207 0.0 5.0 0.00 0.00 0.00 84 1011.7
20260904030417 63 204 1.0 5.0 0.00 0.00 0.00 80 1011.6
20260904030141 64 206 1.0 5.0 0.00 0.00 0.00 80 1011.6
20260904025417 64 208 0.0 4.0 0.00 0.00 0.00 80 1011.6
20260904024917 64 207 0.0 4.0 0.00 0.00 0.00 80 1011.5
20260904024418 64 210 0.0 4.0 0.00 0.00 0.00 80 1011.4
20260904024142 65 213 0.0 6.0 0.00 0.00 0.00 80 1011.5
20260904023414 65 202 1.0 6.0 0.00 0.00 0.00 80 1011.5
20260904022914 65 217 1.0 6.0 0.00 0.00 0.00 79 1011.5
20260904022411 65 213 1.0 6.0 0.00 0.00 0.00 78 1011.5
20260904022132 66 221 0.0 0.0 0.00 0.00 0.00 77 1011.5
20260904021409 66 223 0.0 0.0 0.00 0.00 0.00 76 1011.6
20260904020903 67 211 0.0 0.0 0.00 0.00 0.00 75 1011.6
20260904020357 67 231 0.0 0.0 0.00 0.00 0.00 75 1011.6
20260904015851 67 231 0.0 0.0 0.00 0.00 0.00 73 1011.6
20260904015606 68 231 0.0 0.0 0.00 0.00 0.00 72 1011.6
20260904014839 68 223 0.0 0.0 0.00 0.00 0.00 71 1011.7